Montreal-Pierre Elliott T, Canada

10:52 AM EDT on August 29, 2016 (GMT -0400)
Montreal International (Dorval)

Weather History for CYUL - March, 2013

Change the Weather History Date:

Monday, March 18, 2013

  Actual Average Record
Temperature  
Mean Temperature 18 °F -  
Max Temperature 28 °F 32 °F 73 °F (2012)
Min Temperature 8 °F 18 °F 7 °F (2014)
Degree Days  
Heating Degree Days 47    
Moisture  
Dew Point 3 °F    
Average Humidity 46    
Maximum Humidity 73    
Minimum Humidity 22    
Precipitation  
Precipitation 0.00 in - - ()
Sea Level Pressure  
Sea Level Pressure 30.36 in    
Wind  
Wind Speed 6 mph ()    
Max Wind Speed 18 mph    
Max Gust Speed 20 mph    
Visibility 15.0 miles    
Events      
Averages and records for this station are not official NWS values.
T = Trace of Precipitation, MM = Missing Value Source: Averaged Metar Reports

Daily Weather History Graph

Daily Weather History Graph

Search for Another Location

Airport or City:

Trip Planner

Search our weather history database for the weather conditions in past years. The results will help you decide how hot, cold, wet, or windy it might be!

Date:

Astronomy

Mar. 18, 2013 Rise Set
Actual Time 7:01 AM EDT 7:05 PM EDT
Civil Twilight 6:31 AM EDT 7:34 PM EDT
Nautical Twilight 5:57 AM EDT 8:09 PM EDT
Astronomical Twilight 5:22 AM EDT 8:44 PM EDT
Moon 10:42 AM EDT (3/18) 1:18 AM EDT (3/18)
Length of Visible Light 13h 02m
Length of Day
12h 03m
Waxing Crescent, 40% of the Moon is Illuminated
Mar 18
Waxing Crescent
Mar 19
First Quarter
Mar 27
Full
Apr 3
Last Quarter
Apr 10
New

Hourly Weather History & Observations

Time (EDT) Temp. Windchill Dew Point Humidity Pressure Visibility Wind Dir Wind Speed Gust Speed Precip Events Conditions
12:00 AM 15.8 °F 7.2 °F 1.4 °F 53% 30.38 in 15.0 mi West 5.8 mph - N/A   Clear
1:00 AM 14.0 °F 5.1 °F 1.4 °F 57% 30.39 in 15.0 mi West 5.8 mph - N/A   Clear
2:00 AM 14 °F - 2 °F 43% 30.40 in 15 mi Calm Calm - -   Clear
2:00 AM 14.0 °F - 1.4 °F 57% 30.40 in 15.0 mi West 2.3 mph - N/A   Clear
3:00 AM 14.0 °F 5.1 °F 1.4 °F 57% 30.41 in 15.0 mi NW 5.8 mph - N/A   Clear
4:00 AM 10.4 °F 2.2 °F 3.2 °F 73% 30.41 in 15.0 mi North 4.6 mph - N/A   Clear
5:00 AM 12.2 °F 6.1 °F -0.4 °F 57% 30.42 in 15.0 mi NNW 3.5 mph - N/A   Clear
6:00 AM 10.4 °F 2.2 °F 1.4 °F 67% 30.44 in 15.0 mi North 4.6 mph - N/A   Clear
7:00 AM 10.4 °F 4.0 °F -0.4 °F 62% 30.45 in 15.0 mi North 3.5 mph - N/A   Clear
8:00 AM 15 °F - 4 °F 47% 30.45 in 15 mi NNE 4.6 mph - -   Clear
8:00 AM 14.0 °F 5.1 °F 3.2 °F 62% 30.45 in 15.0 mi NNE 5.8 mph - N/A   Clear
9:00 AM 19.4 °F 10.4 °F 3.2 °F 49% 30.48 in 30.0 mi NNE 6.9 mph - N/A   Clear
10:00 AM 21.2 °F 10.9 °F -4.0 °F 33% 30.46 in 30.0 mi East 9.2 mph - N/A   Scattered Clouds
11:00 AM 21.2 °F 13.6 °F -2.2 °F 36% 30.47 in 30.0 mi SE 5.8 mph - N/A   Overcast
12:00 PM 24.8 °F 16.9 °F 1.4 °F 36% 30.45 in 30.0 mi SE 6.9 mph - N/A   Overcast
1:00 PM 24.8 °F 16.9 °F -0.4 °F 34% 30.44 in 30.0 mi SE 6.9 mph - N/A   Overcast
2:00 PM 27 °F - 3 °F 22% 30.39 in 28 mi East 6.9 mph - -   Overcast
2:00 PM 26.6 °F 17.5 °F 3.2 °F 37% 30.39 in 30.0 mi East 9.2 mph - N/A   Overcast
3:00 PM 26.6 °F 18.2 °F 1.4 °F 34% 30.35 in 30.0 mi ESE 8.1 mph - N/A   Overcast
4:00 PM 28.4 °F 20.4 °F 1.4 °F 31% 30.31 in 30.0 mi East 8.1 mph - N/A   Overcast
5:00 PM 28.4 °F 18.5 °F 5.0 °F 37% 30.29 in 30.0 mi East 11.5 mph 19.6 mph N/A   Overcast
6:00 PM 26.6 °F 16.2 °F 3.2 °F 37% 30.27 in 30.0 mi East 11.5 mph 18.4 mph N/A   Overcast
7:00 PM 26.6 °F 14.7 °F 6.8 °F 43% 30.23 in 30.0 mi NE 15.0 mph - N/A   Overcast
8:00 PM 25 °F - 8 °F 33% 30.22 in 15 mi NE 13.8 mph - -   Clear
8:00 PM 24.8 °F 12.9 °F 8.6 °F 50% 30.22 in 15.0 mi NE 13.8 mph - N/A   Mostly Cloudy
9:00 PM 24.8 °F 11.1 °F 6.8 °F 46% 30.21 in 15.0 mi NE 18.4 mph - N/A   Overcast
10:00 PM 23.0 °F 10.6 °F 8.6 °F 54% 30.18 in 15.0 mi NE 13.8 mph - N/A   Overcast
11:00 PM 24.8 °F 13.4 °F 8.6 °F 50% 30.14 in 15.0 mi NE 12.7 mph - N/A   Overcast